SWA5120 KBWI-KSDF

Flight info

Callsign SWA5120
Flight time 1h 23m
Altitude 38000
Route FOXHL1 OTTTO Q68 YOCKY LEDDL1
Aircraft B738/M-SADE2E3GIJ4RWZ/LB1D1

Departure

Time 2026-05-03 21:12
Airport Baltimore/Washington International Thurgood Marshall Airport (KBWI)

Arrival

Time 2026-05-03 22:36
Airport Louisville Muhammad Ali International Airport (KSDF)
Time Latitude Longitude Altitude Speed Heading
2026-05-03 20:48 39.17709 -76.66907 151 ft 0 kts 236°
2026-05-03 20:59 39.17710 -76.66906 151 ft 2 kts 236°
2026-05-03 20:59 39.17719 -76.66888 151 ft 2 kts 236°
2026-05-03 20:59 39.17728 -76.66871 151 ft 2 kts 236°
2026-05-03 21:00 39.17737 -76.66854 151 ft 2 kts 224°
2026-05-03 21:00 39.17745 -76.66845 151 ft 2 kts 200°
2026-05-03 21:00 39.17762 -76.66843 151 ft 1 kts 153°
2026-05-03 21:00 39.17766 -76.66846 151 ft 0 kts 149°
2026-05-03 21:02 39.17755 -76.66837 151 ft 6 kts 149°
2026-05-03 21:02 39.17702 -76.66799 147 ft 7 kts 157°
2026-05-03 21:02 39.17650 -76.66783 149 ft 8 kts 174°
2026-05-03 21:03 39.17595 -76.66783 148 ft 7 kts 183°
2026-05-03 21:03 39.17551 -76.66775 148 ft 6 kts 154°
2026-05-03 21:03 39.17525 -76.66731 148 ft 6 kts 107°
2026-05-03 21:03 39.17521 -76.66675 148 ft 6 kts 92°
2026-05-03 21:04 39.17521 -76.66609 147 ft 9 kts 83°
2026-05-03 21:04 39.17557 -76.66530 146 ft 2 kts 46°
2026-05-03 21:04 39.17568 -76.66506 146 ft 0 kts 68°
2026-05-03 21:05 39.17570 -76.66487 146 ft 7 kts 90°
2026-05-03 21:05 39.17523 -76.66373 143 ft 20 kts 122°
2026-05-03 21:05 39.17464 -76.66242 144 ft 15 kts 110°
2026-05-03 21:05 39.17451 -76.66113 144 ft 14 kts 94°
2026-05-03 21:06 39.17444 -76.65988 144 ft 14 kts 94°
2026-05-03 21:06 39.17436 -76.65868 145 ft 13 kts 94°
2026-05-03 21:06 39.17429 -76.65753 148 ft 13 kts 94°
2026-05-03 21:06 39.17422 -76.65641 151 ft 12 kts 94°
2026-05-03 21:07 39.17419 -76.65590 151 ft 0 kts 95°
2026-05-03 21:07 39.17417 -76.65562 151 ft 6 kts 99°
2026-05-03 21:07 39.17388 -76.65520 152 ft 7 kts 164°
2026-05-03 21:08 39.17375 -76.65519 152 ft 1 kts 179°
2026-05-03 21:08 39.17370 -76.65519 152 ft 0 kts 178°
2026-05-03 21:09 39.17368 -76.65519 152 ft 0 kts 178°
2026-05-03 21:09 39.17367 -76.65519 152 ft 0 kts 178°
2026-05-03 21:09 39.17366 -76.65518 152 ft 1 kts 178°
2026-05-03 21:09 39.17327 -76.65519 153 ft 9 kts 185°
2026-05-03 21:10 39.17282 -76.65563 151 ft 3 kts 260°
2026-05-03 21:10 39.17283 -76.65576 151 ft 1 kts 273°
2026-05-03 21:10 39.17283 -76.65580 151 ft 0 kts 273°
2026-05-03 21:11 39.17287 -76.65662 149 ft 41 kts 273°
2026-05-03 21:12 39.17329 -76.66445 145 ft 131 kts 274°
2026-05-03 21:12 39.17418 -76.67909 350 ft 190 kts 275°
2026-05-03 21:12 39.17527 -76.69737 1046 ft 215 kts 275°
2026-05-03 21:12 39.17631 -76.71655 2352 ft 207 kts 278°
2026-05-03 21:13 39.17882 -76.73417 3705 ft 199 kts 280°
2026-05-03 21:13 39.17986 -76.75259 4232 ft 215 kts 270°
2026-05-03 21:13 39.18010 -76.77265 4582 ft 236 kts 284°
2026-05-03 21:13 39.18509 -76.79342 5263 ft 248 kts 289°
2026-05-03 21:14 39.19031 -76.81464 6314 ft 248 kts 287°
2026-05-03 21:14 39.19466 -76.83632 7285 ft 251 kts 285°
2026-05-03 21:14 39.19868 -76.85836 8217 ft 254 kts 285°
2026-05-03 21:14 39.20280 -76.88066 9122 ft 257 kts 286°
2026-05-03 21:15 39.20709 -76.90327 10001 ft 261 kts 287°
2026-05-03 21:15 39.21156 -76.92645 10566 ft 276 kts 286°
2026-05-03 21:15 39.21647 -76.95163 10760 ft 303 kts 286°
2026-05-03 21:15 39.22095 -76.97933 10930 ft 330 kts 277°
2026-05-03 21:16 39.22061 -77.00994 11186 ft 351 kts 269°
2026-05-03 21:16 39.21916 -77.04178 11787 ft 358 kts 271°
2026-05-03 21:16 39.21943 -77.07364 12592 ft 358 kts 275°
2026-05-03 21:16 39.22054 -77.10573 13426 ft 359 kts 273°
2026-05-03 21:17 39.21932 -77.13798 14156 ft 364 kts 264°
2026-05-03 21:17 39.21457 -77.15903 14577 ft 373 kts 248°
2026-05-03 21:17 39.19149 -77.19323 15576 ft 387 kts 223°
2026-05-03 21:17 39.16979 -77.21401 16274 ft 391 kts 221°
2026-05-03 21:18 39.14843 -77.23570 16895 ft 391 kts 226°
2026-05-03 21:18 39.12894 -77.26010 17557 ft 390 kts 231°
2026-05-03 21:18 39.11063 -77.28535 18235 ft 392 kts 232°
2026-05-03 21:18 39.09195 -77.31102 18810 ft 394 kts 231°
2026-05-03 21:19 39.07286 -77.33654 19347 ft 398 kts 231°
2026-05-03 21:19 39.05391 -77.36274 19838 ft 397 kts 238°
2026-05-03 21:19 39.04158 -77.39372 20338 ft 390 kts 255°
2026-05-03 21:19 39.03399 -77.42704 20913 ft 388 kts 259°
2026-05-03 21:20 39.02760 -77.46093 21419 ft 391 kts 260°
2026-05-03 21:20 39.02108 -77.49499 21917 ft 393 kts 259°
2026-05-03 21:20 39.01380 -77.52899 22420 ft 396 kts 257°
2026-05-03 21:20 39.00550 -77.56284 22941 ft 398 kts 256°
2026-05-03 21:21 38.99688 -77.59681 23393 ft 401 kts 257°
2026-05-03 21:21 38.98832 -77.63106 23777 ft 404 kts 257°
2026-05-03 21:21 38.97994 -77.66559 24190 ft 404 kts 257°
2026-05-03 21:21 38.97176 -77.70015 24612 ft 404 kts 258°
2026-05-03 21:22 38.96369 -77.73479 24969 ft 406 kts 258°
2026-05-03 21:22 38.95564 -77.76964 25313 ft 408 kts 258°
2026-05-03 21:22 38.94756 -77.80467 25677 ft 409 kts 258°
2026-05-03 21:22 38.93946 -77.83978 26030 ft 411 kts 258°
2026-05-03 21:23 38.93132 -77.87495 26376 ft 412 kts 258°
2026-05-03 21:23 38.92313 -77.91025 26692 ft 413 kts 258°
2026-05-03 21:23 38.91490 -77.94568 27016 ft 414 kts 258°
2026-05-03 21:23 38.90667 -77.98100 27424 ft 412 kts 258°
2026-05-03 21:24 38.89845 -78.01619 27923 ft 409 kts 258°
2026-05-03 21:24 38.89032 -78.05096 28451 ft 406 kts 258°
2026-05-03 21:24 38.88222 -78.08559 28898 ft 404 kts 258°
2026-05-03 21:24 38.87416 -78.12007 29339 ft 402 kts 258°
2026-05-03 21:25 38.86614 -78.15430 29828 ft 400 kts 258°
2026-05-03 21:25 38.85816 -78.18833 30283 ft 397 kts 258°
2026-05-03 21:25 38.85193 -78.22261 30655 ft 392 kts 265°
2026-05-03 21:25 38.85145 -78.25673 30978 ft 387 kts 276°
2026-05-03 21:26 38.85448 -78.29094 31371 ft 385 kts 277°
2026-05-03 21:26 38.85594 -78.32513 31730 ft 384 kts 272°
2026-05-03 21:26 38.85534 -78.35937 32091 ft 384 kts 268°
2026-05-03 21:26 38.85176 -78.39327 32480 ft 385 kts 261°
2026-05-03 21:27 38.84425 -78.42644 32801 ft 388 kts 257°
2026-05-03 21:27 38.83589 -78.45922 33157 ft 386 kts 258°
2026-05-03 21:27 38.82934 -78.49240 33457 ft 382 kts 263°
2026-05-03 21:27 38.82476 -78.52587 33843 ft 379 kts 264°
2026-05-03 21:28 38.82073 -78.55906 34199 ft 377 kts 264°
2026-05-03 21:28 38.81645 -78.59234 34352 ft 379 kts 264°
2026-05-03 21:28 38.81173 -78.62581 34483 ft 382 kts 263°
2026-05-03 21:28 38.80663 -78.65929 34678 ft 383 kts 262°
2026-05-03 21:29 38.80127 -78.69273 34882 ft 384 kts 262°
2026-05-03 21:29 38.79574 -78.72631 35025 ft 386 kts 262°
2026-05-03 21:29 38.79012 -78.75999 35199 ft 387 kts 261°
2026-05-03 21:29 38.78447 -78.79366 35405 ft 387 kts 261°
2026-05-03 21:30 38.77879 -78.82739 35585 ft 388 kts 261°
2026-05-03 21:30 38.77309 -78.86124 35737 ft 389 kts 261°
2026-05-03 21:30 38.76737 -78.89514 35902 ft 390 kts 261°
2026-05-03 21:30 38.76163 -78.92911 36099 ft 390 kts 261°
2026-05-03 21:31 38.75588 -78.96314 36297 ft 391 kts 261°
2026-05-03 21:31 38.75011 -78.99720 36466 ft 392 kts 261°
2026-05-03 21:31 38.74432 -79.03132 36643 ft 392 kts 261°
2026-05-03 21:31 38.73852 -79.06546 36825 ft 393 kts 260°
2026-05-03 21:32 38.73276 -79.09927 36971 ft 394 kts 260°
2026-05-03 21:32 38.72691 -79.13357 37149 ft 395 kts 260°
2026-05-03 21:32 38.72102 -79.16806 37268 ft 397 kts 260°
2026-05-03 21:32 38.71512 -79.20254 37434 ft 396 kts 260°
2026-05-03 21:33 38.70919 -79.23704 37612 ft 397 kts 260°
2026-05-03 21:33 38.70336 -79.27152 37780 ft 397 kts 260°
2026-05-03 21:33 38.69768 -79.30614 37919 ft 398 kts 260°
2026-05-03 21:33 38.69207 -79.34078 38078 ft 398 kts 260°
2026-05-03 21:34 38.68267 -79.39864 38089 ft 399 kts 260°
2026-05-03 21:34 38.67130 -79.46794 38094 ft 397 kts 260°
2026-05-03 21:35 38.65990 -79.53702 38087 ft 395 kts 260°
2026-05-03 21:35 38.64850 -79.60583 38091 ft 396 kts 260°
2026-05-03 21:36 38.63705 -79.67469 38095 ft 396 kts 260°
2026-05-03 21:36 38.62514 -79.74349 38101 ft 396 kts 259°
2026-05-03 21:37 38.61257 -79.81210 38093 ft 396 kts 259°
2026-05-03 21:37 38.60003 -79.88054 38103 ft 395 kts 259°
2026-05-03 21:38 38.58757 -79.94881 38108 ft 394 kts 259°
2026-05-03 21:38 38.57511 -80.01706 38104 ft 394 kts 259°
2026-05-03 21:39 38.56262 -80.08516 38122 ft 393 kts 259°
2026-05-03 21:39 38.55395 -80.15381 38114 ft 391 kts 270°
2026-05-03 21:40 38.56003 -80.22238 38117 ft 393 kts 277°
2026-05-03 21:40 38.56432 -80.29198 38125 ft 393 kts 272°
2026-05-03 21:41 38.56622 -80.36184 38109 ft 394 kts 272°
2026-05-03 21:41 38.56918 -80.43164 38108 ft 393 kts 273°
2026-05-03 21:42 38.57266 -80.50140 38102 ft 393 kts 274°
2026-05-03 21:42 38.57609 -80.57116 38102 ft 393 kts 272°
2026-05-03 21:43 38.57311 -80.64065 38101 ft 394 kts 258°
2026-05-03 21:43 38.55642 -80.70744 38109 ft 394 kts 255°
2026-05-03 21:44 38.54299 -80.77507 38099 ft 391 kts 260°
2026-05-03 21:44 38.53197 -80.84313 38104 ft 391 kts 260°
2026-05-03 21:45 38.51994 -80.91084 38108 ft 391 kts 259°
2026-05-03 21:45 38.50718 -80.97789 38101 ft 391 kts 258°
2026-05-03 21:46 38.49405 -81.04531 38098 ft 392 kts 258°
2026-05-03 21:46 38.48081 -81.11288 38105 ft 393 kts 258°
2026-05-03 21:47 38.46753 -81.18050 38101 ft 393 kts 258°
2026-05-03 21:47 38.45420 -81.24812 38093 ft 393 kts 258°
2026-05-03 21:48 38.44086 -81.31565 38087 ft 392 kts 258°
2026-05-03 21:48 38.42751 -81.38306 38075 ft 392 kts 258°
2026-05-03 21:49 38.41414 -81.45028 38067 ft 391 kts 258°
2026-05-03 21:49 38.40073 -81.51752 38064 ft 392 kts 258°
2026-05-03 21:50 38.38725 -81.58488 38075 ft 392 kts 258°
2026-05-03 21:50 38.37374 -81.65218 38069 ft 392 kts 258°
2026-05-03 21:51 38.36019 -81.71951 38077 ft 392 kts 258°
2026-05-03 21:51 38.34603 -81.78672 38078 ft 394 kts 255°
2026-05-03 21:52 38.32795 -81.85271 38078 ft 395 kts 253°
2026-05-03 21:52 38.30873 -81.91827 38090 ft 395 kts 253°
2026-05-03 21:53 38.28996 -81.98358 38089 ft 395 kts 253°
2026-05-03 21:53 38.27131 -82.04940 38098 ft 396 kts 253°
2026-05-03 21:54 38.25266 -82.11530 38101 ft 396 kts 253°
2026-05-03 21:54 38.23396 -82.18122 38091 ft 396 kts 253°
2026-05-03 21:55 38.21519 -82.24719 38091 ft 397 kts 253°
2026-05-03 21:55 38.19637 -82.31318 38088 ft 398 kts 253°
2026-05-03 21:56 38.17748 -82.37930 38085 ft 398 kts 253°
2026-05-03 21:56 38.15859 -82.44546 38081 ft 398 kts 253°
2026-05-03 21:57 38.13965 -82.51168 38077 ft 399 kts 253°
2026-05-03 21:57 38.12064 -82.57796 38084 ft 399 kts 253°
2026-05-03 21:58 38.10160 -82.64418 38080 ft 400 kts 253°
2026-05-03 21:58 38.08250 -82.71042 38091 ft 400 kts 253°
2026-05-03 21:59 38.06334 -82.77670 38092 ft 400 kts 253°
2026-05-03 21:59 38.04416 -82.84291 38102 ft 400 kts 253°
2026-05-03 22:00 38.02505 -82.90871 38097 ft 400 kts 253°
2026-05-03 22:00 38.00577 -82.97492 38104 ft 400 kts 253°
2026-05-03 22:01 37.98648 -83.04103 38103 ft 400 kts 253°
2026-05-03 22:01 37.96715 -83.10709 38112 ft 399 kts 253°
2026-05-03 22:02 37.94780 -83.17307 38105 ft 400 kts 253°
2026-05-03 22:02 37.92841 -83.23904 38111 ft 399 kts 253°
2026-05-03 22:03 37.90901 -83.30491 38105 ft 399 kts 253°
2026-05-03 22:03 37.88960 -83.37058 38100 ft 398 kts 253°
2026-05-03 22:04 37.87018 -83.43618 38095 ft 398 kts 253°
2026-05-03 22:04 37.85073 -83.50169 38098 ft 398 kts 253°
2026-05-03 22:05 37.83126 -83.56713 38097 ft 398 kts 253°
2026-05-03 22:05 37.81174 -83.63259 38105 ft 398 kts 252°
2026-05-03 22:06 37.79231 -83.69760 38108 ft 398 kts 253°
2026-05-03 22:06 37.77270 -83.76304 38100 ft 398 kts 252°
2026-05-03 22:07 37.75304 -83.82848 38103 ft 399 kts 252°
2026-05-03 22:07 37.73332 -83.89399 38050 ft 400 kts 252°
2026-05-03 22:08 37.72336 -83.92707 37517 ft 404 kts 252°
2026-05-03 22:08 37.71338 -83.96007 36927 ft 400 kts 253°
2026-05-03 22:08 37.70350 -83.99271 36345 ft 398 kts 253°
2026-05-03 22:08 37.69361 -84.02538 35714 ft 397 kts 253°
2026-05-03 22:09 37.68375 -84.05797 35036 ft 398 kts 253°
2026-05-03 22:09 37.67384 -84.09069 34357 ft 399 kts 253°
2026-05-03 22:09 37.66389 -84.12344 33600 ft 400 kts 253°
2026-05-03 22:10 37.64428 -84.18914 32234 ft 397 kts 255°
2026-05-03 22:10 37.63546 -84.22213 31515 ft 397 kts 256°
2026-05-03 22:10 37.62716 -84.25532 30748 ft 398 kts 257°
2026-05-03 22:10 37.61893 -84.28876 29929 ft 400 kts 257°
2026-05-03 22:11 37.61056 -84.32241 29001 ft 402 kts 256°
2026-05-03 22:11 37.60206 -84.35602 28246 ft 401 kts 256°
2026-05-03 22:11 37.59352 -84.38923 27614 ft 397 kts 256°
2026-05-03 22:11 37.58511 -84.42167 27034 ft 393 kts 256°
2026-05-03 22:12 37.57661 -84.45431 26420 ft 390 kts 256°
2026-05-03 22:12 37.56819 -84.48654 25828 ft 386 kts 256°
2026-05-03 22:12 37.55974 -84.51887 25245 ft 392 kts 256°
2026-05-03 22:12 37.55109 -84.55207 24649 ft 403 kts 256°
2026-05-03 22:13 37.54233 -84.58558 24004 ft 402 kts 256°
2026-05-03 22:13 37.53357 -84.61889 23326 ft 398 kts 255°
2026-05-03 22:13 37.52489 -84.65186 22636 ft 394 kts 255°
2026-05-03 22:13 37.51631 -84.68442 21992 ft 390 kts 255°
2026-05-03 22:14 37.50781 -84.71666 21376 ft 386 kts 255°
2026-05-03 22:14 37.49941 -84.74856 20779 ft 382 kts 255°
2026-05-03 22:14 37.49109 -84.78011 20182 ft 378 kts 255°
2026-05-03 22:14 37.48284 -84.81138 19605 ft 374 kts 255°
2026-05-03 22:15 37.47466 -84.84227 19052 ft 371 kts 255°
2026-05-03 22:15 37.46666 -84.87298 18488 ft 367 kts 257°
2026-05-03 22:15 37.46377 -84.90436 17842 ft 359 kts 277°
2026-05-03 22:15 37.46938 -84.93452 17286 ft 353 kts 291°
2026-05-03 22:16 37.48028 -84.96214 16612 ft 353 kts 302°
2026-05-03 22:16 37.49629 -84.98541 16032 ft 352 kts 316°
2026-05-03 22:16 37.51520 -85.00490 15472 ft 350 kts 320°
2026-05-03 22:16 37.53416 -85.02330 15317 ft 337 kts 319°
2026-05-03 22:17 37.55182 -85.04183 15157 ft 324 kts 316°
2026-05-03 22:17 37.56844 -85.06022 15019 ft 312 kts 316°
2026-05-03 22:17 37.58593 -85.07599 14705 ft 311 kts 330°
2026-05-03 22:17 37.60623 -85.08458 14364 ft 313 kts 341°
2026-05-03 22:18 37.62739 -85.09090 13977 ft 312 kts 342°
2026-05-03 22:18 37.64834 -85.09768 13531 ft 309 kts 339°
2026-05-03 22:18 37.66881 -85.10563 13122 ft 307 kts 338°
2026-05-03 22:18 37.68910 -85.11376 12731 ft 304 kts 338°
2026-05-03 22:19 37.70925 -85.12171 12333 ft 302 kts 338°
2026-05-03 22:19 37.72927 -85.12950 11941 ft 300 kts 338°
2026-05-03 22:19 37.74926 -85.13697 11537 ft 299 kts 339°
2026-05-03 22:19 37.76935 -85.14413 11097 ft 300 kts 339°
2026-05-03 22:20 37.78940 -85.15123 10715 ft 299 kts 339°
2026-05-03 22:20 37.80919 -85.15826 10547 ft 290 kts 339°
2026-05-03 22:20 37.82805 -85.16497 10409 ft 273 kts 339°
2026-05-03 22:20 37.84594 -85.17136 10312 ft 264 kts 338°
2026-05-03 22:21 37.86342 -85.17767 10204 ft 257 kts 338°
2026-05-03 22:21 37.88040 -85.18378 10093 ft 250 kts 338°
2026-05-03 22:21 37.89687 -85.18972 9915 ft 245 kts 338°
2026-05-03 22:21 37.91318 -85.19561 9664 ft 243 kts 338°
2026-05-03 22:22 37.92940 -85.20147 9384 ft 242 kts 338°
2026-05-03 22:22 37.94550 -85.20728 9123 ft 240 kts 338°
2026-05-03 22:22 37.96056 -85.21546 8838 ft 232 kts 317°
2026-05-03 22:22 37.97220 -85.22928 8617 ft 231 kts 311°
2026-05-03 22:23 37.98387 -85.24372 8345 ft 239 kts 314°
2026-05-03 22:23 37.99677 -85.25823 7844 ft 254 kts 316°
2026-05-03 22:23 38.01002 -85.27306 7450 ft 253 kts 316°
2026-05-03 22:23 38.02312 -85.28798 7082 ft 253 kts 315°
2026-05-03 22:24 38.03615 -85.30297 6710 ft 253 kts 315°
2026-05-03 22:24 38.04919 -85.31808 6344 ft 256 kts 315°
2026-05-03 22:24 38.06232 -85.33333 5951 ft 256 kts 315°
2026-05-03 22:24 38.07542 -85.34858 5552 ft 256 kts 315°
2026-05-03 22:25 38.08857 -85.36390 5171 ft 257 kts 315°
2026-05-03 22:25 38.10172 -85.37920 4775 ft 257 kts 314°
2026-05-03 22:25 38.11489 -85.39456 4390 ft 257 kts 315°
2026-05-03 22:25 38.12789 -85.40972 4013 ft 257 kts 315°
2026-05-03 22:26 38.14101 -85.42503 3626 ft 255 kts 315°
2026-05-03 22:26 38.15401 -85.44023 3247 ft 253 kts 315°
2026-05-03 22:26 38.16688 -85.45525 3039 ft 252 kts 314°
2026-05-03 22:26 38.17988 -85.47045 3008 ft 253 kts 315°
2026-05-03 22:27 38.19262 -85.48539 3029 ft 247 kts 315°
2026-05-03 22:27 38.20525 -85.50014 3010 ft 245 kts 315°
2026-05-03 22:27 38.21376 -85.51010 3014 ft 248 kts 315°
2026-05-03 22:27 38.22641 -85.52488 2994 ft 244 kts 315°
2026-05-03 22:28 38.23885 -85.53947 3008 ft 244 kts 315°
2026-05-03 22:28 38.25122 -85.55403 3007 ft 246 kts 315°
2026-05-03 22:28 38.26383 -85.56882 2981 ft 246 kts 315°
2026-05-03 22:28 38.27650 -85.58368 2993 ft 244 kts 315°
2026-05-03 22:29 38.28883 -85.59816 3004 ft 245 kts 315°
2026-05-03 22:29 38.30139 -85.61288 2996 ft 245 kts 315°
2026-05-03 22:29 38.31402 -85.62776 2965 ft 249 kts 314°
2026-05-03 22:29 38.32665 -85.64262 3000 ft 245 kts 315°
2026-05-03 22:30 38.33913 -85.65726 2985 ft 243 kts 315°
2026-05-03 22:30 38.35172 -85.67178 2997 ft 245 kts 320°
2026-05-03 22:30 38.36749 -85.68024 3006 ft 250 kts 345°
2026-05-03 22:30 38.38462 -85.68469 2973 ft 251 kts 346°
2026-05-03 22:31 38.40045 -85.69306 2966 ft 244 kts 319°
2026-05-03 22:31 38.41018 -85.70965 2975 ft 230 kts 287°
2026-05-03 22:31 38.41129 -85.72925 2975 ft 223 kts 255°
2026-05-03 22:31 38.40424 -85.74662 2980 ft 224 kts 235°
2026-05-03 22:32 38.39272 -85.75980 3012 ft 227 kts 207°
2026-05-03 22:32 38.37734 -85.76544 2981 ft 231 kts 193°
2026-05-03 22:32 38.36149 -85.76917 2966 ft 233 kts 192°
2026-05-03 22:32 38.34567 -85.77284 2980 ft 229 kts 192°
2026-05-03 22:33 38.33038 -85.77627 2961 ft 218 kts 189°
2026-05-03 22:33 38.31476 -85.77525 2983 ft 233 kts 170°
2026-05-03 22:33 38.29905 -85.76991 2755 ft 234 kts 167°
2026-05-03 22:33 38.28364 -85.76429 2458 ft 227 kts 167°
2026-05-03 22:34 38.26865 -85.75906 2182 ft 221 kts 168°
2026-05-03 22:34 38.25402 -85.75412 1909 ft 214 kts 168°
2026-05-03 22:34 38.23992 -85.74931 1638 ft 204 kts 167°
2026-05-03 22:34 38.22669 -85.74479 1381 ft 189 kts 167°
2026-05-03 22:35 38.21438 -85.74058 1132 ft 177 kts 168°
2026-05-03 22:35 38.20302 -85.73671 921 ft 162 kts 168°
2026-05-03 22:35 38.19247 -85.73299 716 ft 151 kts 166°
2026-05-03 22:35 38.18310 -85.72982 530 ft 127 kts 166°
2026-05-03 22:36 38.17547 -85.72725 484 ft 100 kts 165°
2026-05-03 22:36 38.17174 -85.72656 485 ft 25 kts 200°
2026-05-03 22:36 38.17129 -85.72694 482 ft 0 kts 235°
2026-05-03 22:38 38.17126 -85.72701 487 ft 4 kts 241°
2026-05-03 22:38 38.17148 -85.72751 483 ft 12 kts 330°
2026-05-03 22:38 38.17262 -85.72791 483 ft 20 kts 346°
2026-05-03 22:38 38.17398 -85.72843 486 ft 20 kts 342°
2026-05-03 22:39 38.17531 -85.72893 481 ft 20 kts 343°
2026-05-03 22:39 38.17620 -85.73014 486 ft 19 kts 299°
2026-05-03 22:39 38.17666 -85.73166 484 ft 18 kts 285°
2026-05-03 22:39 38.17707 -85.73318 485 ft 18 kts 289°
2026-05-03 22:40 38.17752 -85.73461 482 ft 17 kts 293°
2026-05-03 22:40 38.17796 -85.73598 481 ft 17 kts 291°
2026-05-03 22:40 38.17835 -85.73733 482 ft 16 kts 291°
2026-05-03 22:40 38.17874 -85.73861 485 ft 15 kts 292°
2026-05-03 22:41 38.17914 -85.73983 483 ft 15 kts 292°
2026-05-03 22:41 38.17951 -85.74101 486 ft 14 kts 291°
2026-05-03 22:41 38.18016 -85.74175 482 ft 13 kts 342°
2026-05-03 22:41 38.18096 -85.74192 485 ft 12 kts 21°
2026-05-03 22:42 38.18145 -85.74113 488 ft 11 kts 57°
2026-05-03 22:42 38.18186 -85.74029 486 ft 11 kts 58°
2026-05-03 22:42 38.18242 -85.73977 485 ft 11 kts 345°
2026-05-03 22:42 38.18304 -85.74016 485 ft 9 kts 359°
2026-05-03 22:43 38.18327 -85.73987 485 ft 0 kts 78°